Starlink 35469

operational
NORAD ID: 65863 Int'l Des: 2025-223 Owner: SPXS Country: US Constellation: starlink
LEOCIRCULAR

About Starlink 35469

Description loading...

Live Position

Loading 3D Globe...

Upcoming Passes

Altitude History

Altitude vs Time

uPlot chart will show altitude changes over time

Two-Line Element Set

1 65863U 25223K 26062.10461023 .00042094 00000-0 14243-2 0 9990
2 65863 53.1613 325.0333 0001388 76.8154 283.3002 15.30223279 23196
Epoch: Mar 3, 2026 • Age: 25 hours

Current Status

Altitude 477.1 km
Velocity 7.63 km/s
Sub-Earth Point -6.22°S, 35.62°W
Launch Date Oct 3, 2025
Age 0.4 years
Type internet

Technical Details

Classification Payload
Mass 575.00 kg
Dry Mass 530.00 kg
Total Mass 575.00 kg
Length 0.30 m
Diameter 4.10 m
Span 29.00 m
Shape Box + pan
Manufacturer SPXS
Bus Type Starlink V2MO
Phase Status In Orbit
Owner/State SPXS/US

Large Constellations

Loading constellations...